| time (UTC) | temp F | wind direction | speed knots | gust knots | rain 1hr in | rain 24hr in | rain mn in | humidity % | barometer mb |
| 20260507162409 | 60 | 135 | 2.6 | 2.6 | 0.00 | 0.00 | 0.00 | 43 | 1014.3 |
| 20260507161907 | 60 | 135 | 2.6 | 2.6 | 0.00 | 0.00 | 0.00 | 43 | 1014.3 |
| 20260507161403 | 60 | 243 | 2.6 | 4.3 | 0.00 | 0.00 | 0.00 | 43 | 1014.3 |
| 20260507160900 | 60 | 177 | 0.9 | 1.7 | 0.00 | 0.00 | 0.00 | 44 | 1014.4 |
| 20260507160355 | 58 | 191 | 2.6 | 4.3 | 0.00 | 0.00 | 0.00 | 43 | 1014.5 |
| 20260507155852 | 57 | 328 | 1.7 | 2.6 | 0.00 | 0.00 | 0.00 | 44 | 1014.6 |
| 20260507155348 | 57 | 239 | 1.7 | 1.7 | 0.00 | 0.00 | 0.00 | 45 | 1014.7 |
| 20260507154845 | 59 | 281 | 2.6 | 4.3 | 0.00 | 0.00 | 0.00 | 45 | 1014.6 |
| 20260507154342 | 60 | 220 | 3.5 | 5.2 | 0.00 | 0.00 | 0.00 | 43 | 1014.7 |
| 20260507153839 | 57 | 225 | 2.6 | 2.6 | 0.00 | 0.00 | 0.00 | 47 | 1014.4 |
| 20260507153535 | 58 | 248 | 8.7 | 12.2 | 0.00 | 0.00 | 0.00 | 45 | 1014.8 |
| 20260507153336 | 58 | 248 | 8.7 | 12.2 | 0.00 | 0.00 | 0.00 | 45 | 1014.8 |
| 20260507153118 | 57 | 254 | 5.2 | 7.0 | 0.00 | 0.00 | 0.00 | 45 | 1014.6 |
| 20260507152832 | 57 | 254 | 5.2 | 7.0 | 0.00 | 0.00 | 0.00 | 45 | 1014.6 |
| 20260507152328 | 56 | 170 | 1.7 | 2.6 | 0.00 | 0.00 | 0.00 | 48 | 1014.5 |
| 20260507152003 | 55 | 2 | 3.5 | 4.3 | 0.00 | 0.00 | 0.00 | 47 | 1014.9 |
| 20260507151825 | 55 | 2 | 3.5 | 4.3 | 0.00 | 0.00 | 0.00 | 47 | 1014.9 |
| 20260507151321 | 56 | 294 | 3.5 | 5.2 | 0.00 | 0.00 | 0.00 | 48 | 1015.1 |
| 20260507150818 | 57 | 220 | 0.9 | 1.7 | 0.00 | 0.00 | 0.00 | 46 | 1015.0 |
| 20260507150314 | 58 | 243 | 2.6 | 4.3 | 0.00 | 0.00 | 0.00 | 44 | 1015.1 |
| 20260507145811 | 57 | 203 | 2.6 | 2.6 | 0.00 | 0.00 | 0.00 | 48 | 1015.1 |
| 20260507145307 | 56 | 223 | 3.5 | 5.2 | 0.00 | 0.00 | 0.00 | 45 | 1015.2 |
| 20260507144804 | 56 | 247 | 3.5 | 4.3 | 0.00 | 0.00 | 0.00 | 47 | 1015.1 |
| 20260507144302 | 57 | 258 | 5.2 | 7.8 | 0.00 | 0.00 | 0.00 | 45 | 1015.6 |
| 20260507143758 | 56 | 345 | 4.3 | 6.1 | 0.00 | 0.00 | 0.00 | 47 | 1015.5 |
| 20260507143255 | 56 | 196 | 0.0 | 0.0 | 0.00 | 0.00 | 0.00 | 50 | 1015.5 |
| 20260507142751 | 57 | 341 | 4.3 | 6.1 | 0.00 | 0.00 | 0.00 | 45 | 1015.5 |
| 20260507142248 | 56 | 82 | 0.9 | 1.7 | 0.00 | 0.00 | 0.00 | 51 | 1015.6 |
| 20260507141744 | 55 | 217 | 1.7 | 1.7 | 0.00 | 0.00 | 0.00 | 51 | 1015.5 |
| 20260507141242 | 56 | 177 | 1.7 | 2.6 | 0.00 | 0.00 | 0.00 | 51 | 1015.8 |
| 20260507140737 | 55 | 30 | 0.9 | 0.9 | 0.00 | 0.00 | 0.00 | 53 | 1016.0 |
| 20260507140235 | 55 | 198 | 0.9 | 0.9 | 0.00 | 0.00 | 0.00 | 54 | 1015.9 |
| 20260507135732 | 55 | 300 | 4.3 | 6.1 | 0.00 | 0.00 | 0.00 | 53 | 1015.8 |
| 20260507135230 | 55 | 213 | 0.0 | 0.0 | 0.00 | 0.00 | 0.00 | 56 | 1016.0 |
| 20260507134725 | 55 | 187 | 1.7 | 1.7 | 0.00 | 0.00 | 0.00 | 58 | 1015.9 |
| 20260507134222 | 55 | 130 | 0.9 | 0.9 | 0.00 | 0.00 | 0.00 | 58 | 1016.2 |
| 20260507133718 | 54 | 223 | 0.9 | 1.7 | 0.00 | 0.00 | 0.00 | 59 | 1016.0 |
| 20260507133215 | 53 | 209 | 0.9 | 0.9 | 0.00 | 0.00 | 0.00 | 61 | 1016.2 |
| 20260507132713 | 53 | 169 | 2.6 | 4.3 | 0.00 | 0.00 | 0.00 | 62 | 1016.2 |
| 20260507132209 | 52 | 191 | 1.7 | 1.7 | 0.00 | 0.00 | 0.00 | 63 | 1016.2 |
| 20260507131706 | 52 | 156 | 1.7 | 2.6 | 0.00 | 0.00 | 0.00 | 66 | 1016.4 |
| 20260507131203 | 51 | 183 | 2.6 | 4.3 | 0.00 | 0.00 | 0.00 | 66 | 1016.3 |
| 20260507130700 | 50 | 212 | 1.7 | 1.7 | 0.00 | 0.00 | 0.00 | 67 | 1016.3 |
| 20260507130157 | 50 | 178 | 0.0 | 0.0 | 0.00 | 0.00 | 0.00 | 69 | 1016.1 |
| 20260507125656 | 48 | 195 | 0.9 | 1.7 | 0.00 | 0.00 | 0.00 | 73 | 1016.3 |
| 20260507125153 | 48 | 179 | 0.0 | 0.9 | 0.00 | 0.00 | 0.00 | 76 | 1016.1 |
| 20260507124649 | 47 | 196 | 0.9 | 1.7 | 0.00 | 0.00 | 0.00 | 78 | 1016.3 |
| 20260507124147 | 46 | 198 | 0.9 | 0.9 | 0.00 | 0.00 | 0.00 | 80 | 1016.4 |
| 20260507123645 | 45 | 200 | 0.9 | 1.7 | 0.00 | 0.00 | 0.00 | 82 | 1016.4 |
| 20260507123142 | 44 | 192 | 0.9 | 1.7 | 0.00 | 0.00 | 0.00 | 84 | 1016.4 |
| 20260507122637 | 44 | 189 | 0.0 | 0.0 | 0.00 | 0.00 | 0.00 | 86 | 1016.2 |
| 20260507122133 | 44 | 188 | 0.0 | 0.0 | 0.00 | 0.00 | 0.00 | 88 | 1016.4 |
| 20260507121629 | 43 | 182 | 0.0 | 0.0 | 0.00 | 0.00 | 0.00 | 89 | 1016.3 |
| 20260507121125 | 42 | 178 | 0.0 | 0.0 | 0.00 | 0.00 | 0.00 | 89 | 1016.2 |
| 20260507120622 | 42 | 177 | 0.0 | 0.0 | 0.00 | 0.00 | 0.00 | 89 | 1016.4 |
| 20260507120118 | 42 | 178 | 0.0 | 0.0 | 0.00 | 0.00 | 0.00 | 90 | 1016.4 |
| 20260507115615 | 41 | 178 | 0.0 | 0.0 | 0.00 | 0.00 | 0.00 | 90 | 1016.2 |
| 20260507115111 | 41 | 178 | 0.0 | 0.0 | 0.00 | 0.00 | 0.00 | 90 | 1016.4 |
| 20260507114607 | 41 | 170 | 0.0 | 0.0 | 0.00 | 0.00 | 0.00 | 90 | 1016.2 |
| 20260507114104 | 40 | 164 | 0.0 | 0.0 | 0.00 | 0.00 | 0.00 | 90 | 1016.4 |
| 20260507113601 | 40 | 164 | 0.0 | 0.0 | 0.00 | 0.00 | 0.00 | 90 | 1016.3 |
| 20260507113058 | 40 | 157 | 0.0 | 0.0 | 0.00 | 0.00 | 0.00 | 90 | 1016.1 |
| 20260507112556 | 40 | 156 | 0.0 | 0.0 | 0.00 | 0.00 | 0.00 | 90 | 1016.2 |
| 20260507112052 | 39 | 156 | 0.0 | 0.0 | 0.00 | 0.00 | 0.00 | 90 | 1016.3 |
| 20260507111549 | 39 | 156 | 0.0 | 0.0 | 0.00 | 0.00 | 0.00 | 90 | 1016.0 |
| 20260507111046 | 39 | 111 | 0.0 | 0.0 | 0.00 | 0.00 | 0.00 | 90 | 1016.1 |
| 20260507110543 | 39 | 111 | 0.0 | 0.0 | 0.00 | 0.00 | 0.00 | 90 | 1016.2 |
| 20260507110039 | 39 | 111 | 0.0 | 0.0 | 0.00 | 0.00 | 0.00 | 90 | 1016.0 |
| 20260507105536 | 39 | 96 | 0.0 | 0.0 | 0.00 | 0.00 | 0.00 | 90 | 1016.0 |
| 20260507105032 | 39 | 96 | 0.0 | 0.0 | 0.00 | 0.00 | 0.00 | 90 | 1015.9 |
| 20260507104530 | 38 | 96 | 0.0 | 0.0 | 0.00 | 0.00 | 0.00 | 90 | 1015.9 |
| 20260507104026 | 38 | 96 | 0.0 | 0.0 | 0.00 | 0.00 | 0.00 | 90 | 1015.8 |
| 20260507103522 | 38 | 96 | 0.0 | 0.0 | 0.00 | 0.00 | 0.00 | 90 | 1015.7 |
| 20260507103019 | 38 | 96 | 0.0 | 0.0 | 0.00 | 0.00 | 0.00 | 90 | 1015.5 |
| 20260507102516 | 39 | 96 | 0.0 | 0.0 | 0.00 | 0.00 | 0.00 | 89 | 1015.7 |
| 20260507102012 | 39 | 95 | 0.0 | 0.0 | 0.00 | 0.00 | 0.00 | 89 | 1015.9 |
| 20260507101507 | 39 | 95 | 0.0 | 0.0 | 0.00 | 0.00 | 0.00 | 89 | 1015.9 |
| 20260507101004 | 39 | 95 | 0.0 | 0.0 | 0.00 | 0.00 | 0.00 | 89 | 1015.8 |
| 20260507100501 | 39 | 95 | 0.0 | 0.0 | 0.00 | 0.00 | 0.00 | 89 | 1015.7 |
| 20260507095959 | 39 | 96 | 0.0 | 0.0 | 0.00 | 0.00 | 0.00 | 89 | 1015.7 |
| 20260507095457 | 39 | 96 | 0.0 | 0.0 | 0.00 | 0.00 | 0.00 | 89 | 1015.7 |
| 20260507094953 | 39 | 96 | 0.0 | 0.0 | 0.00 | 0.00 | 0.00 | 89 | 1015.7 |
| 20260507094449 | 39 | 96 | 0.0 | 0.0 | 0.00 | 0.00 | 0.00 | 89 | 1015.6 |
| 20260507093947 | 39 | 96 | 0.0 | 0.0 | 0.00 | 0.00 | 0.00 | 89 | 1015.7 |
| 20260507093444 | 40 | 96 | 0.0 | 0.0 | 0.00 | 0.00 | 0.00 | 89 | 1015.6 |
| 20260507092943 | 39 | 96 | 0.0 | 0.0 | 0.00 | 0.00 | 0.00 | 89 | 1015.7 |
| 20260507092438 | 40 | 96 | 0.0 | 0.0 | 0.00 | 0.00 | 0.00 | 89 | 1015.6 |
| 20260507091935 | 40 | 96 | 0.0 | 0.0 | 0.00 | 0.00 | 0.00 | 88 | 1015.7 |
| 20260507091432 | 40 | 96 | 0.0 | 0.0 | 0.00 | 0.00 | 0.00 | 88 | 1015.8 |
| 20260507090928 | 40 | 96 | 0.0 | 0.0 | 0.00 | 0.00 | 0.00 | 88 | 1016.0 |
| 20260507090424 | 40 | 96 | 0.0 | 0.0 | 0.00 | 0.00 | 0.00 | 88 | 1015.7 |
| 20260507085920 | 41 | 96 | 0.0 | 0.0 | 0.00 | 0.00 | 0.00 | 88 | 1015.7 |
| 20260507085418 | 41 | 96 | 0.0 | 0.0 | 0.00 | 0.00 | 0.00 | 88 | 1015.8 |
| 20260507084915 | 41 | 96 | 0.0 | 0.0 | 0.00 | 0.00 | 0.00 | 88 | 1015.7 |
| 20260507084412 | 41 | 96 | 0.0 | 0.0 | 0.00 | 0.00 | 0.00 | 87 | 1015.8 |
| 20260507083909 | 41 | 96 | 0.0 | 0.0 | 0.00 | 0.00 | 0.00 | 87 | 1015.9 |
| 20260507083405 | 41 | 96 | 0.0 | 0.0 | 0.00 | 0.00 | 0.00 | 87 | 1015.9 |
| 20260507082901 | 41 | 96 | 0.0 | 0.0 | 0.00 | 0.00 | 0.00 | 87 | 1015.7 |
| 20260507082357 | 41 | 96 | 0.0 | 0.0 | 0.00 | 0.00 | 0.00 | 86 | 1015.7 |
| 20260507081855 | 41 | 96 | 0.0 | 0.0 | 0.00 | 0.00 | 0.00 | 86 | 1015.8 |
| 20260507081350 | 42 | 96 | 0.0 | 0.0 | 0.00 | 0.00 | 0.00 | 86 | 1015.6 |
| 20260507080848 | 42 | 96 | 0.0 | 0.0 | 0.00 | 0.00 | 0.00 | 86 | 1015.7 |
| 20260507080343 | 42 | 97 | 0.0 | 0.0 | 0.00 | 0.00 | 0.00 | 86 | 1015.6 |
| 20260507075839 | 42 | 97 | 0.0 | 0.0 | 0.00 | 0.00 | 0.00 | 85 | 1015.8 |
| 20260507075335 | 42 | 97 | 0.0 | 0.0 | 0.00 | 0.00 | 0.00 | 85 | 1015.9 |
| 20260507074832 | 42 | 97 | 0.0 | 0.0 | 0.00 | 0.00 | 0.00 | 85 | 1015.7 |
| 20260507074329 | 42 | 96 | 0.0 | 0.0 | 0.00 | 0.00 | 0.00 | 84 | 1015.8 |
| 20260507073826 | 43 | 96 | 0.0 | 0.0 | 0.00 | 0.00 | 0.00 | 84 | 1015.8 |
| 20260507073323 | 43 | 96 | 0.0 | 0.0 | 0.00 | 0.00 | 0.00 | 84 | 1015.7 |
| 20260507072820 | 43 | 96 | 0.0 | 0.0 | 0.00 | 0.00 | 0.00 | 83 | 1015.7 |
| 20260507072318 | 43 | 96 | 0.0 | 0.0 | 0.00 | 0.00 | 0.00 | 82 | 1015.8 |
| 20260507071815 | 44 | 96 | 0.0 | 0.0 | 0.00 | 0.00 | 0.00 | 82 | 1015.9 |
| 20260507071311 | 44 | 96 | 0.0 | 0.0 | 0.00 | 0.00 | 0.00 | 81 | 1015.8 |
| 20260507070808 | 44 | 97 | 0.0 | 0.0 | 0.00 | 0.00 | 0.00 | 80 | 1015.7 |
| 20260507070306 | 44 | 97 | 0.0 | 0.0 | 0.00 | 0.00 | 0.00 | 79 | 1015.8 |
| 20260507065802 | 44 | 97 | 0.0 | 0.0 | 0.00 | 0.00 | 0.00 | 79 | 1015.8 |
| 20260507065259 | 45 | 97 | 0.0 | 0.0 | 0.00 | 0.00 | 0.00 | 78 | 1015.9 |
| 20260507064756 | 45 | 97 | 0.0 | 0.0 | 0.00 | 0.00 | 0.00 | 77 | 1015.8 |
| 20260507064255 | 45 | 97 | 0.9 | 0.9 | 0.00 | 0.00 | 0.00 | 77 | 1016.0 |
| 20260507063752 | 46 | 97 | 0.0 | 0.9 | 0.00 | 0.00 | 0.00 | 77 | 1015.8 |
| 20260507063249 | 46 | 97 | 0.0 | 0.9 | 0.00 | 0.00 | 0.00 | 77 | 1015.8 |
| 20260507062745 | 47 | 97 | 0.0 | 0.0 | 0.00 | 0.00 | 0.00 | 76 | 1016.0 |
| 20260507062243 | 47 | 97 | 0.0 | 0.0 | 0.00 | 0.00 | 0.00 | 74 | 1015.8 |
| 20260507061741 | 47 | 97 | 0.0 | 0.0 | 0.00 | 0.00 | 0.00 | 73 | 1015.7 |
| 20260507061238 | 48 | 97 | 0.0 | 0.0 | 0.00 | 0.00 | 0.00 | 74 | 1015.9 |
| 20260507060736 | 48 | 97 | 0.0 | 0.0 | 0.00 | 0.00 | 0.00 | 74 | 1016.0 |
| 20260507060233 | 48 | 97 | 0.0 | 0.0 | 0.00 | 0.00 | 0.00 | 73 | 1015.8 |
| 20260507055729 | 48 | 97 | 0.0 | 0.0 | 0.00 | 0.00 | 0.00 | 73 | 1015.8 |
| 20260507055224 | 48 | 97 | 0.0 | 0.0 | 0.00 | 0.00 | 0.00 | 73 | 1016.0 |
| 20260507054721 | 48 | 97 | 0.0 | 0.0 | 0.00 | 0.00 | 0.00 | 72 | 1016.2 |
| 20260507054218 | 48 | 97 | 0.0 | 0.0 | 0.00 | 0.00 | 0.00 | 71 | 1016.2 |
| 20260507053715 | 49 | 97 | 0.0 | 0.0 | 0.00 | 0.00 | 0.00 | 69 | 1016.4 |
| 20260507053213 | 49 | 79 | 0.0 | 0.0 | 0.00 | 0.00 | 0.00 | 67 | 1016.2 |
| 20260507052712 | 49 | 99 | 0.0 | 0.9 | 0.00 | 0.00 | 0.00 | 67 | 1016.8 |
| 20260507052207 | 49 | 99 | 0.0 | 0.0 | 0.00 | 0.00 | 0.00 | 67 | 1016.4 |
| 20260507051706 | 49 | 99 | 0.0 | 0.0 | 0.00 | 0.00 | 0.00 | 66 | 1016.7 |
| 20260507051202 | 49 | 90 | 0.0 | 0.0 | 0.00 | 0.00 | 0.00 | 67 | 1016.6 |
| 20260507050659 | 49 | 90 | 0.0 | 0.0 | 0.00 | 0.00 | 0.00 | 68 | 1016.6 |
| 20260507050155 | 49 | 90 | 0.9 | 0.9 | 0.00 | 0.00 | 0.00 | 67 | 1016.5 |
| 20260507045652 | 49 | 88 | 0.9 | 0.9 | 0.00 | 0.00 | 0.00 | 67 | 1016.7 |
| 20260507045149 | 49 | 130 | 0.9 | 0.9 | 0.00 | 0.00 | 0.00 | 68 | 1016.5 |
| 20260507044646 | 50 | 129 | 0.0 | 0.9 | 0.00 | 0.00 | 0.00 | 69 | 1016.6 |
| 20260507044143 | 49 | 129 | 0.0 | 0.0 | 0.00 | 0.00 | 0.00 | 66 | 1016.4 |
| 20260507043638 | 49 | 129 | 0.0 | 0.0 | 0.00 | 0.00 | 0.00 | 65 | 1016.4 |
| 20260507043136 | 49 | 116 | 0.0 | 0.9 | 0.00 | 0.00 | 0.00 | 66 | 1016.3 |
| 20260507042632 | 49 | 110 | 0.0 | 0.0 | 0.00 | 0.00 | 0.00 | 67 | 1016.4 |
| 20260507042127 | 50 | 110 | 0.0 | 0.0 | 0.00 | 0.00 | 0.00 | 70 | 1016.5 |
| 20260507041624 | 50 | 110 | 0.0 | 0.0 | 0.00 | 0.00 | 0.00 | 65 | 1016.5 |
| 20260507041121 | 50 | 110 | 0.0 | 0.9 | 0.00 | 0.00 | 0.00 | 64 | 1016.5 |
| 20260507040618 | 50 | 107 | 0.0 | 0.0 | 0.00 | 0.00 | 0.00 | 65 | 1016.7 |
| 20260507040114 | 50 | 107 | 0.9 | 0.9 | 0.00 | 0.49 | 0.49 | 64 | 1016.3 |
| 20260507035610 | 50 | 108 | 0.0 | 0.9 | 0.00 | 0.49 | 0.49 | 63 | 1016.4 |
| 20260507035106 | 50 | 107 | 0.0 | 0.0 | 0.00 | 0.49 | 0.49 | 63 | 1016.4 |
| 20260507034604 | 50 | 154 | 0.0 | 0.0 | 0.00 | 0.49 | 0.49 | 63 | 1016.3 |
| 20260507034102 | 50 | 154 | 0.0 | 0.0 | 0.00 | 0.49 | 0.49 | 64 | 1016.3 |
| 20260507033600 | 50 | 358 | 1.7 | 1.7 | 0.00 | 0.49 | 0.49 | 62 | 1016.2 |
| 20260507033056 | 50 | 176 | 0.0 | 0.0 | 0.00 | 0.49 | 0.49 | 65 | 1016.4 |
| 20260507032554 | 50 | 163 | 0.0 | 0.0 | 0.00 | 0.49 | 0.49 | 65 | 1016.2 |
| 20260507032049 | 51 | 142 | 0.0 | 0.0 | 0.00 | 0.49 | 0.49 | 65 | 1016.0 |
| 20260507031546 | 51 | 9 | 0.9 | 2.6 | 0.00 | 0.49 | 0.49 | 64 | 1016.1 |
| 20260507031043 | 51 | 52 | 0.0 | 0.9 | 0.00 | 0.49 | 0.49 | 64 | 1016.3 |
| 20260507030540 | 51 | 22 | 2.6 | 2.6 | 0.00 | 0.49 | 0.49 | 64 | 1015.9 |
| 20260507030038 | 51 | 111 | 0.0 | 0.0 | 0.00 | 0.49 | 0.49 | 65 | 1015.8 |
| 20260507025534 | 51 | 78 | 0.9 | 0.9 | 0.00 | 0.49 | 0.49 | 64 | 1015.9 |
| 20260507025032 | 51 | 107 | 0.0 | 0.9 | 0.00 | 0.49 | 0.49 | 64 | 1015.7 |
| 20260507024530 | 51 | 93 | 0.9 | 0.9 | 0.00 | 0.49 | 0.49 | 63 | 1016.0 |
| 20260507024026 | 51 | 99 | 0.0 | 0.0 | 0.00 | 0.49 | 0.49 | 63 | 1015.7 |